Location: Shannon
(40.5500°S, 175.4167°E)
Time: 07:40:15
(UTC+00:00)

Cosmos 1844 Rocket - Pass Details

Date: 17 November 2025
Orbit: 822 x 844 km, 71.0° (Epoch: 14 December)

Event Time Altitude Azimuth Distance (km) Brightness Sun altitude
Exits shadow 15:34:14 14° 335° (NNW) 2,174 4.3 -12.8°
Maximum altitude 15:39:08 84° 247° (WSW) 862 2.7 -12.1°
Drops below altitude 10° 15:44:53 10° 158° (SSE) 2,487 6.1 -11.2°
Sets 15:47:21 0° 157° (SSE) 3,426 7.0 -10.8°
